Location: Oulou
(10.7667°N, 12.5167°W)
Time: 09:53:25
(UTC+00:00)

Cosmos 405 - Pass Details

Date: 20 September 2019
Orbit: 452 x 467 km, 81.3° (Epoch: 15 October)

Event Time Altitude Azimuth Distance (km) Brightness Sun altitude
Rises 19:23:58 0° 354° (N) 2,451 6.8 -9.8°
Reaches altitude 10° 19:26:02 10° 353° (N) 1,578 5.8 -10.3°
Maximum altitude 19:29:28 85° 265° (W) 456 2.9 -11.1°
Drops below altitude 10° 19:32:55 10° 176° (S) 1,578 5.6 -11.9°
Sets 19:34:59 0° 176° (S) 2,450 6.6 -12.5°
